Kirksville, MO

2:09 AM CDT on May 26, 2017 (GMT -0500)
Kirksville Regional

Weather History for KIRK - October, 2014

Change the Weather History Date:

Saturday, October 18, 2014

  Actual Average Record
Temperature  
Mean Temperature 48 °F 52 °F  
Max Temperature 59 °F 63 °F 87 °F (1950)
Min Temperature 36 °F 42 °F 22 °F (1948)
Degree Days  
Heating Degree Days 17 13  
Month to date heating degree days 191 184  
Since 1 July heating degree days 297 291  
Cooling Degree Days 0 0  
Month to date cooling degree days 0 10  
Year to date cooling degree days 955 937  
Moisture  
Dew Point 43 °F    
Average Humidity 79    
Maximum Humidity 100    
Minimum Humidity 57    
Precipitation  
Precipitation 0.00 in 0.12 in 1.75 in (1984)
Month to date precipitation 4.02 2.00  
Year to date precipitation 42.18 33.52  
Sea Level Pressure  
Sea Level Pressure 30.19 in    
Wind  
Wind Speed 6 mph (NNW)    
Max Wind Speed 14 mph    
Max Gust Speed 20 mph    
Visibility 10 miles    
Events      
T = Trace of Precipitation, MM = Missing Value Source: NWS Daily Summary

Daily Weather History Graph

Daily Weather History Graph

Search for Another Location

Airport or City:

Trip Planner

Search our weather history database for the weather conditions in past years. The results will help you decide how hot, cold, wet, or windy it might be!

Date:

Astronomy

Oct. 18, 2014 Rise Set
Actual Time 7:23 AM CDT 6:26 PM CDT
Civil Twilight 6:56 AM CDT 6:53 PM CDT
Nautical Twilight 6:24 AM CDT 7:24 PM CDT
Astronomical Twilight 5:53 AM CDT 7:56 PM CDT
Moon 2:22 AM CDT (10/18) 3:46 PM CDT (10/18)
Length of Visible Light 11h 56m
Length of Day
11h 02m
Waning Crescent, 24% of the Moon is Illuminated
Oct 18
Waning Crescent
Oct 23
New
Oct 30
First Quarter
Nov 6
Full
Nov 14
Last Quarter

Hourly Weather History & Observations

Time (CDT) Temp. Windchill Dew Point Humidity Pressure Visibility Wind Dir Wind Speed Gust Speed Precip Events Conditions
12:55 AM 46.0 °F 41.9 °F 42.1 °F 86% 30.07 in 10.0 mi NNW 8.1 mph - N/A   Clear
1:55 AM 46.0 °F 43.1 °F 42.1 °F 86% 30.07 in 10.0 mi NNW 5.8 mph - N/A   Clear
2:55 AM 44.1 °F 41.5 °F 42.1 °F 93% 30.09 in 10.0 mi NW 4.6 mph - N/A   Clear
3:55 AM 43.0 °F 39.5 °F 41.0 °F 93% 30.10 in 10.0 mi NW 5.8 mph - N/A   Clear
4:55 AM 45.0 °F 42.6 °F 43.0 °F 93% 30.12 in 10.0 mi NW 4.6 mph - N/A   Overcast
5:55 AM 42.1 °F 39.2 °F 41.0 °F 96% 30.14 in 10.0 mi WNW 4.6 mph - N/A   Clear
6:55 AM 42.1 °F 38.4 °F 41.0 °F 96% 30.17 in 10.0 mi WNW 5.8 mph - N/A   Clear
7:55 AM 44.1 °F 40.1 °F 42.1 °F 93% 30.18 in 10.0 mi NW 6.9 mph - N/A   Clear
8:55 AM 46.0 °F 41.4 °F 43.0 °F 89% 30.20 in 10.0 mi NW 9.2 mph - N/A   Clear
9:55 AM 48.9 °F - 43.0 °F 80% 30.22 in 10.0 mi NW 9.2 mph - N/A   Clear
10:55 AM 52.0 °F - 44.1 °F 74% 30.23 in 10.0 mi Variable 6.9 mph - N/A   Clear
11:55 AM 55.9 °F - 46.0 °F 69% 30.24 in 10.0 mi NNW 11.5 mph 19.6 mph N/A   Scattered Clouds
12:07 PM 54.0 °F - 44.1 °F 69% 30.23 in 10.0 mi North 12.7 mph - N/A   Mostly Cloudy
12:55 PM 55.9 °F - 45.0 °F 67% 30.24 in 10.0 mi NNE 8.1 mph - N/A   Mostly Cloudy
1:26 PM 55.0 °F - 44.1 °F 67% 30.21 in 10.0 mi NNW 8.1 mph - N/A   Mostly Cloudy
1:55 PM 57.9 °F - 44.1 °F 60% 30.22 in 10.0 mi NNE 9.2 mph - N/A   Scattered Clouds
2:55 PM 59.0 °F - 45.0 °F 60% 30.21 in 10.0 mi NNW 10.4 mph - N/A   Mostly Cloudy
3:55 PM 57.9 °F - 44.1 °F 60% 30.21 in 10.0 mi NNE 6.9 mph - N/A   Clear
4:55 PM 57.9 °F - 43.0 °F 58% 30.20 in 10.0 mi NNW 5.8 mph - N/A   Clear
5:55 PM 54.0 °F - 44.1 °F 69% 30.21 in 10.0 mi NNE 6.9 mph - N/A   Clear
6:55 PM 50.0 °F - 43.0 °F 77% 30.23 in 10.0 mi NE 4.6 mph - N/A   Clear
7:55 PM 45.0 °F 43.5 °F 41.0 °F 86% 30.24 in 10.0 mi NE 3.5 mph - N/A   Clear
8:55 PM 42.1 °F - 41.0 °F 96% 30.25 in 10.0 mi Calm Calm - N/A   Clear
9:55 PM 42.1 °F 40.2 °F 41.0 °F 96% 30.26 in 10.0 mi NE 3.5 mph - N/A   Clear
10:55 PM 43.0 °F 40.3 °F 41.0 °F 93% 30.25 in 10.0 mi ENE 4.6 mph - N/A   Clear
11:55 PM 37.9 °F - 37.0 °F 97% 30.25 in 8.0 mi Calm Calm - N/A   Clear